This is the latest recevied weather packets stored in our database for station/object KH6DH-13. If no packets are shown the sender has not sent any weather packets the latest 10 day(s).
| Time | Temp. | Humidity | Pressure | Rain* | Wind** | Luminosity | Snow |
|---|---|---|---|---|---|---|---|
| 1777505820 | 27.78° C | - | - | 0 mm | 1.34 m/s, 96° | - | - |
| 1777505219 | 27.22° C | - | - | 0 mm | 1.79 m/s, 96° | - | - |
| 1777504618 | 27.22° C | - | - | 0 mm | 1.79 m/s, 53° | - | - |
| 1777504017 | 27.78° C | - | - | 0 mm | 2.24 m/s, 134° | - | - |
| 1777503416 | 27.22° C | - | - | 0 mm | 2.24 m/s, 34° | - | - |
| 1777502815 | 27.22° C | - | - | 0 mm | 3.13 m/s, 98° | - | - |
| 1777502214 | 27.22° C | - | - | 0 mm | 2.24 m/s, 8° | - | - |
| 1777501613 | 27.22° C | - | - | 0 mm | 1.79 m/s, 98° | - | - |
| 1777501012 | 26.67° C | - | - | 0 mm | 2.24 m/s, 162° | - | - |
| 1777500411 | 26.67° C | - | - | 0 mm | 2.24 m/s, 72° | - | - |
| 1777499810 | 26.67° C | - | - | 0 mm | 0.89 m/s, 158° | - | - |
| 1777499209 | 26.67° C | - | - | 0 mm | 2.24 m/s, 120° | - | - |
| 1777498608 | 26.67° C | - | - | 0 mm | 2.68 m/s, 129° | - | - |
| 1777498007 | 27.22° C | - | - | 0 mm | 1.34 m/s, 84° | - | - |
| 1777497406 | 26.67° C | - | - | 0 mm | 2.24 m/s, 122° | - | - |
| 1777496805 | 27.22° C | - | - | 0 mm | 1.34 m/s, 179° | - | - |
| 1777496204 | 26.67° C | - | - | 0 mm | 2.24 m/s, 142° | - | - |
| 1777495601 | 26.67° C | - | - | 0 mm | 0.89 m/s, 353° | - | - |
| 1777495000 | 26.67° C | - | - | 0 mm | 1.79 m/s, 260° | - | - |
| 1777494399 | 26.67° C | - | - | 0 mm | 1.34 m/s, 163° | - | - |
| 1777493798 | 26.11° C | - | - | 0 mm | 1.34 m/s, 37° | - | - |
| 1777493197 | 26.11° C | - | - | 0 mm | 2.24 m/s, 347° | - | - |
| 1777492596 | 25.56° C | - | - | 0 mm | 2.24 m/s, 93° | - | - |
| 1777491995 | 25° C | - | - | 0 mm | 1.34 m/s, 155° | - | - |
| 1777491392 | 25° C | - | - | 0 mm | 0.89 m/s, 24° | - | - |
* Rain latest hour (hover to see other rain measurements)
** Current wind speed in m/s (hover to see current wind gust speed)